TOMSAT R3 (AEROCUBE 11B) (43849 NORAD) Tracking and Keplerian Element Data

This shows tracking and keplerian element data for the satellite.

Feedback or suggestion? Click here.




ElementValue
Catalog43849
NameTOMSAT R3 (AEROCUBE 11B)
Epoch Orbit436
Epoch Day13.91550664
Epoch Year2019
RAAN159.403
Inclination85.0347
Eccentricity0.0017752
Argument of Perigee175.294
Mean Anonmoly184.8478
Mean Motion15.21287934
Decay Rate1.369E-05
L11 43849U 18104A 19013.91550664 .00001369 00000-0 59212-4 0 9994
L22 43849 85.0347 159.4030 0017752 175.2940 184.8478 15.21287934 4364

Live tracking and technical data element details for TOMSAT R3 (AEROCUBE 11B) (NORAD 43849). TOMSAT R3 (AEROCUBE 11B) can be tracked NOW for your location showing map with azimuth and elevation plus other details from your city location.

Track the satellite on the map from your city or location and see movement details for azimuth, elevation, latitude, longitude, range, height, and movement on the map or in text.







IsCatalogInMostPopularTable: catalog: 43849, numindb: 73
Update: records affected: 1



GetName: 43849 TOMSAT R3 (AEROCUBE 11B)

Hit Count: updated at: Thu, 23 May 2019 15:12:55 GMT